TimeCST,TemperatureF,Dew PointF,Humidity,Sea Level PressureIn,VisibilityMPH,Wind Direction,Wind SpeedMPH,Gust SpeedMPH,PrecipitationIn,Events,Conditions,WindDirDegrees,DateUTC
12:54 AM,36.0,32.0,86,30.46,8.0,East,4.6,-,N/A,,Clear,80,2012-11-17 06:54:00
1:54 AM,33.1,30.0,89,30.46,7.0,ENE,3.5,-,N/A,,Clear,70,2012-11-17 07:54:00
2:54 AM,32.0,30.0,92,30.47,5.0,ENE,3.5,-,N/A,,Clear,70,2012-11-17 08:54:00
3:54 AM,33.1,32.0,96,30.48,5.0,ENE,3.5,-,N/A,,Clear,70,2012-11-17 09:54:00
4:34 AM,32.0,30.2,93,30.48,1.8,Calm,Calm,-,N/A,,Clear,0,2012-11-17 10:34:00
4:43 AM,33.8,30.2,87,30.48,3.0,Calm,Calm,-,N/A,,Clear,0,2012-11-17 10:43:00
4:54 AM,30.9,28.9,92,30.49,4.0,Calm,Calm,-,N/A,,Clear,0,2012-11-17 10:54:00
5:05 AM,32.0,28.4,87,30.48,1.8,Calm,Calm,-,N/A,,Clear,0,2012-11-17 11:05:00
5:39 AM,30.2,28.4,93,30.47,2.0,ESE,11.5,-,N/A,,Clear,110,2012-11-17 11:39:00
5:47 AM,32.0,28.4,87,30.47,4.0,ESE,11.5,-,N/A,,Clear,110,2012-11-17 11:47:00
5:54 AM,33.1,30.0,89,30.48,5.0,ESE,8.1,-,N/A,,Clear,110,2012-11-17 11:54:00
6:54 AM,32.0,28.0,85,30.50,5.0,Calm,Calm,-,N/A,,Clear,0,2012-11-17 12:54:00
7:54 AM,34.0,30.9,89,30.51,3.0,East,6.9,-,N/A,,Clear,90,2012-11-17 13:54:00
8:54 AM,41.0,33.1,73,30.53,5.0,Calm,Calm,-,N/A,,Haze,0,2012-11-17 14:54:00
9:54 AM,46.0,35.1,66,30.52,6.0,Calm,Calm,-,N/A,,Haze,0,2012-11-17 15:54:00
10:54 AM,50.0,35.1,57,30.51,7.0,SSE,4.6,-,N/A,,Clear,160,2012-11-17 16:54:00
11:54 AM,53.1,34.0,48,30.48,8.0,South,5.8,-,N/A,,Clear,180,2012-11-17 17:54:00
12:54 PM,54.0,35.1,49,30.45,8.0,Variable,3.5,-,N/A,,Clear,0,2012-11-17 18:54:00
1:54 PM,57.0,30.9,37,30.43,10.0,ESE,8.1,-,N/A,,Clear,120,2012-11-17 19:54:00
2:54 PM,55.9,30.0,37,30.42,10.0,East,9.2,-,N/A,,Clear,100,2012-11-17 20:54:00
3:54 PM,54.0,33.1,45,30.42,10.0,ESE,8.1,-,N/A,,Clear,110,2012-11-17 21:54:00
4:54 PM,48.0,34.0,58,30.41,10.0,ESE,8.1,-,N/A,,Clear,120,2012-11-17 22:54:00
5:54 PM,43.0,34.0,71,30.40,8.0,ESE,9.2,-,N/A,,Clear,110,2012-11-17 23:54:00
6:54 PM,39.9,33.1,77,30.40,8.0,East,9.2,-,N/A,,Clear,100,2012-11-18 00:54:00
7:54 PM,43.0,34.0,71,30.42,7.0,Calm,Calm,-,N/A,,Clear,0,2012-11-18 01:54:00
8:54 PM,41.0,37.0,86,30.42,7.0,East,4.6,-,N/A,,Clear,80,2012-11-18 02:54:00
9:54 PM,36.0,33.1,89,30.42,7.0,East,8.1,-,N/A,,Clear,100,2012-11-18 03:54:00
10:54 PM,34.0,30.0,85,30.42,6.0,East,9.2,-,N/A,,Clear,100,2012-11-18 04:54:00
11:54 PM,34.0,28.9,82,30.41,7.0,ESE,6.9,-,N/A,,Clear,110,2012-11-18 05:54:00